Regional Weather Roundup
Issued by NWS

Home | Current Version | Previous Version | Graphics & Text | Print | Product List | Glossary On
Versions: 1 2 3 4 5 6 7 8 9 10 11 12 13 14 15 16 17 18 19 20 21 22 23 24 25 26 27 28 29 30 31 32 33 34 35 36 37 38 39 40 41 42 43 44 45 46 47 48 49 50
000
ASUS45 KTFX 040310
RWRMT
MONTANA REGIONAL WEATHER ROUNDUP
NATIONAL WEATHER SERVICE GREAT FALLS MT
900 PM MDT MON AUG 03 2015

NOTE: "FAIR" INDICATES FEW OR NO CLOUDS BELOW 12000 FEET WITH NO
SIGNIFICANT WEATHER AND/OR OBSTRUCTIONS TO VISIBILITY.

MTZ001>007-043-040400-
WEST OF THE DIVIDE

CITY           SKY/WX    TMP DP  RH WIND       PRES   REMARKS
KALISPELL      MOCLDY    79  44  28 SW5       29.74R SMOKE
MISSOULA       CLOUDY    83  33  16 NW12      29.86R
BUTTE          CLOUDY    76  39  26 NW9       30.00R
MULLAN PASS    CLOUDY    65  37  35 NW7       30.07S
DEER LODGE       N/A     75  45  33 CALM      29.95R
EUREKA           N/A     86  37  17 SW6       29.75R
HAMILTON         N/A     82  34  17 SE1       29.89R
LIBBY            N/A     84  37  18 CALM      29.80R
PLAINS           N/A     86  42  21 S10       29.85R
$$

MTZ008-052>055-040400-
SOUTHWEST MONTANA

CITY           SKY/WX    TMP DP  RH WIND       PRES   REMARKS
BOZEMAN        CLOUDY    76  43  30 SE20      29.91R
DILLON         CLOUDY    72  49  44 SW12      29.96S
W YELLOWSTONE  CLOUDY    63  48  59 S3        30.14S
$$

MTZ009-010-012-014-046-048-049-054-040400-
EAST SLOPES AND CENTRAL MONTANA

CITY           SKY/WX    TMP DP  RH WIND       PRES   REMARKS
CUT BANK       PTCLDY    83  39  21 SE10      29.79F
GREAT FALLS    PTCLDY    82  45  27 E9        29.79R
MALMSTROM AFB  MOCLDY    84  44  25 SE14      29.77S
HELENA         MOCLDY    88  40  18 SW13      29.81R
CONRAD           N/A     80  49  33 E3        29.84S
$$

MTZ011-013-016-021-045-047-050-051-040400-
NORTH CENTRAL MONTANA

CITY           SKY/WX    TMP DP  RH WIND       PRES   REMARKS
HAVRE          CLEAR     80  52  37 E17       29.79R
CHINOOK          N/A     77  54  44 E12       29.81R
FORT BENTON      N/A     88  45  22 E18G29    29.75S
$$

MTZ017>020-022>027-061-062-040400-
NORTHEAST MONTANA

CITY           SKY/WX    TMP DP  RH WIND       PRES   REMARKS
GLASGOW        PTCLDY    76  44  32 E13       29.88S
JORDAN           N/A     81  46  29 E15       29.88R
SIDNEY         CLEAR    N/A N/A N/A N6        29.93R
WOLF POINT     CLEAR     74  49  41 E7        29.92R
MALTA            N/A     76  52  43 NE5       29.84R
POPLAR           N/A     72  48  43 E6        29.93R
$$

MTZ028>42-056>058-040400-
SOUTHCENTRAL AND SOUTHEAST MONTANA

CITY           SKY/WX    TMP DP  RH WIND       PRES   REMARKS
BAKER          CLOUDY    72  50  45 SE8       29.97R
BILLINGS       CLOUDY    83  48  29 E13       29.88R
LIVINGSTON     MOCLDY    75  45  34 NW8       29.93F
MILES CITY     CLOUDY    79  50  36 NE8       29.89R
EKALAKA          N/A     73  49  42 E6        29.96R
FORSYTH          N/A     81  46  30 E7        29.86S
LAUREL           N/A     82  50  32 NE2       29.87S
$$

REGIONAL REPORTS...DAKOTAS

CITY           SKY/WX    TMP DP  RH WIND       PRES   REMARKS
WILLISTON      CLEAR     73  48  41 E8        29.96R
MINOT          CLEAR     67  49  52 SE3       29.95R
DICKINSON      CLEAR     64  51  62 E10       29.97R
BISMARCK       CLEAR     68  50  52 NE5       29.97R
GRAND FORKS    CLEAR     61  51  70 CALM      29.90S
FARGO          CLEAR     62  51  67 CALM      29.93R
BUFFALO SD       N/A     72  53  51 E9        29.91S
RAPID CITY     MOCLDY    72  58  61 E10       29.97R
$$

REGIONAL REPORTS...WYOMING/IDAHO/WASHINGTON

CITY           SKY/WX    TMP DP  RH WIND       PRES   REMARKS
GILLETTE       CLOUDY    68  53  58 W8        29.99F
SHERIDAN       CLOUDY    77  46  33 SE18G35   29.91R
BUFFALO WY     CLOUDY    70  46  42 SW31G39   30.02F
CODY           CLOUDY    73  45  35 SE20G29   30.01S
YELLOWSTONE LA   N/A     59  45  59 CALM      30.24S
IDAHO FALLS    CLOUDY    66  55  67 S17       30.03F
SALMON         CLOUDY    75  45  33 W5        29.92R
BOISE          MOCLDY    88  47  24 NW5       29.85R
SPOKANE        CLOUDY    81  44  27 W20G28    29.87R
$$

REGIONAL REPORTS...ALBERTA

CITY           SKY/WX    TMP DP  RH WIND       PRES   REMARKS
EDMONTON       CLEAR     72  57  60 E10       29.74F
CALGARY        CLOUDY    75  52  43 N8        29.81S
LETHBRIDGE     MOCLDY    73  57  56 SE8       29.73F
MEDICINE HAT   MOCLDY    82  50  32 SE16G23   29.75S
WATERTON GATE    N/A     70  59  68 SW1         N/A
CARDSTON         N/A     73  52  46 S3          N/A
ONEFOUR          N/A     77  48  36 E17         N/A
$$

REGIONAL REPORTS...SASKATCHEWAN

CITY           SKY/WX    TMP DP  RH WIND       PRES   REMARKS
SWIFT CURRENT  CLEAR     68  57  68 E15G25    29.91S
REGINA         PTCLDY    66  54  63 E8        29.96R
SASKATOON      PTCLDY    70  55  60 E8        29.95S
CYPRESS HILLS    N/A     68  48  49 SE9         N/A
VAL MARIE        N/A     72  48  43 E10         N/A
ROCKGLEN         N/A     68  50  52 E7          N/A
ASSINIBOIA       N/A     73  55  53 E9          N/A
$$


USA.gov is the U.S. government's official web portal to all federal, state and local government web resources and services.